QPF
0.01 0.01 0.01 0.02 0.02 0.02 0.03 0.04 0.03 0.03 0.02 0.02 0.02 0.02 0.02 0.01 0.00 0.00 0.00 0.00 0.00 0.01 0.02 0.02 0.02 0.03 0.03 0.03 0.02 0.02 0.02 0.03 0.03 0.03 0.02 0.02 0.02 0.02 0.02 0.02 0.02 0.02 0.02
0.03 0.02 0.02 0.02 0.03 0.03 0.02 0.03 0.04 0.03 0.02 0.02 0.02 0.01 0.01 0.01 0.00 0.00 0.00 0.00 0.00 0.01 0.01 0.02 0.02 0.02 0.02 0.03 0.04 0.03 0.03 0.03 0.03 0.02 0.02 0.02 0.03 0.03 0.03 0.03 0.02 0.03 0.03
0.03 0.02 0.02 0.02 0.03 0.03 0.03 0.03 0.03 0.03 0.02 0.01 0.01 0.01 0.00 0.00 0.00 0.00 0.00 0.00 0.01 0.00 0.00 0.01 0.02 0.02 0.03 0.04 0.05 0.03 0.03 0.03 0.03 0.02 0.02 0.02 0.02 0.02 0.02 0.02 0.02 0.03 0.03
0.02 0.02 0.02 0.01 0.02 0.03 0.03 0.03 0.03 0.03 0.02 0.01 0.01 0.01 0.00 0.00 0.00 0.00 0.00 0.00 0.01 0.01 0.00 0.00 0.01 0.01 0.03 0.03 0.03 0.03 0.02 0.02 0.02 0.02 0.02 0.01 0.02 0.02 0.02 0.02 0.02 0.02 0.02
0.02 0.02 0.02 0.02 0.02 0.02 0.04 0.05 0.03 0.03 0.03 0.03 0.02 0.02 0.01 0.01 0.00 0.00 0.00 0.00 0.00 0.01 0.01 0.01 0.00 0.01 0.02 0.03 0.02 0.02 0.02 0.02 0.02 0.02 0.02 0.01 0.02 0.02 0.02 0.02 0.02 0.01 0.01
0.02 0.02 0.02 0.02 0.02 0.02 0.03 0.05 0.05 0.04 0.03 0.03 0.03 0.02 0.01 0.01 0.01 0.00 0.00 0.00 0.01 0.00 0.01 0.01 0.01 0.00 0.01 0.02 0.02 0.02 0.03 0.03 0.02 0.02 0.01 0.01 0.01 0.01 0.01 0.02 0.02 0.01 0.02
0.03 0.02 0.02 0.03 0.03 0.03 0.03 0.04 0.06 0.07 0.05 0.05 0.05 0.04 0.02 0.02 0.01 0.01 0.01 0.01 0.01 0.01 0.01 0.01 0.01 0.01 0.01 0.01 0.01 0.01 0.02 0.02 0.01 0.01 0.01 0.01 0.01 0.01 0.02 0.02 0.02 0.02 0.02
0.03 0.03 0.04 0.05 0.05 0.05 0.04 0.04 0.05 0.07 0.07 0.06 0.07 0.07 0.04 0.03 0.02 0.01 0.01 0.01 0.01 0.01 0.01 0.00 0.01 0.01 0.01 0.01 0.01 0.01 0.01 0.01 0.01 0.01 0.01 0.01 0.01 0.01 0.02 0.02 0.02 0.02 0.02
0.04 0.03 0.03 0.04 0.05 0.04 0.05 0.05 0.06 0.07 0.08 0.07 0.08 0.09 0.06 0.03 0.02 0.02 0.01 0.01 0.01 0.01 0.01 0.00 0.00 0.00 0.01 0.01 0.01 0.00 0.00 0.00 0.00 0.01 0.01 0.02 0.02 0.02 0.02 0.02 0.01 0.02 0.02
0.04 0.05 0.04 0.04 0.04 0.04 0.04 0.04 0.04 0.05 0.07 0.08 0.07 0.07 0.07 0.05 0.03 0.02 0.01 0.01 0.01 0.01 0.00 0.00 0.00 0.01 0.01 0.01 0.01 0.01 0.01 0.00 0.00 0.01 0.01 0.01 0.02 0.03 0.03 0.03 0.02 0.02 0.02
0.05 0.05 0.04 0.04 0.04 0.03 0.03 0.03 0.03 0.03 0.05 0.06 0.06 0.05 0.05 0.04 0.03 0.02 0.02 0.01 0.01 0.01 0.01 0.00 0.00 0.00 0.00 0.00 0.00 0.01 0.01 0.01 0.01 0.01 0.01 0.01 0.01 0.02 0.03 0.03 0.03 0.03 0.03
0.08 0.06 0.06 0.05 0.04 0.04 0.04 0.04 0.04 0.04 0.04 0.04 0.05 0.05 0.04 0.04 0.03 0.03 0.02 0.02 0.01 0.01 0.01 0.01 0.01 0.00 0.00 0.00 0.01 0.01 0.02 0.02 0.01 0.01 0.00 0.00 0.01 0.01 0.01 0.01 0.02 0.02 0.03
0.06 0.06 0.06 0.05 0.05 0.05 0.05 0.05 0.05 0.04 0.04 0.04 0.04 0.04 0.04 0.03 0.03 0.03 0.02 0.02 0.01 0.01 0.01 0.00 0.00 0.00 0.00 0.00 0.00 0.01 0.01 0.01 0.01 0.00 0.00 0.00 0.00 0.00 0.01 0.01 0.01 0.02 0.02
0.05 0.05 0.05 0.05 0.06 0.06 0.05 0.05 0.05 0.04 0.03 0.03 0.03 0.03 0.03 0.03 0.03 0.03 0.03 0.04 0.04 0.04 0.03 0.02 0.01 0.01 0.01 0.01 0.01 0.00 0.00 0.00 0.00 0.00 0.00 0.00 0.00 0.00 0.01 0.01 0.01 0.01 0.02
0.12 0.10 0.08 0.06 0.05 0.06 0.06 0.05 0.05 0.04 0.03 0.02 0.01 0.02 0.02 0.02 0.02 0.02 0.03 0.03 0.04 0.04 0.04 0.04 0.03 0.02 0.01 0.01 0.00 0.00 0.00 0.00 0.00 0.00 0.00 0.00 0.00 0.00 0.01 0.01 0.01 0.01 0.02
0.15 0.16 0.14 0.10 0.08 0.06 0.05 0.06 0.05 0.04 0.03 0.02 0.01 0.01 0.01 0.01 0.01 0.01 0.02 0.02 0.02 0.02 0.02 0.01 0.01 0.01 0.01 0.01 0.01 0.01 0.00 0.00 0.00 0.00 0.00 0.00 0.00 0.00 0.01 0.01 0.01 0.01 0.01
0.07 0.08 0.09 0.08 0.07 0.07 0.06 0.06 0.06 0.07 0.06 0.04 0.03 0.02 0.01 0.01 0.01 0.01 0.01 0.01 0.01 0.02 0.02 0.01 0.00 0.00 0.00 0.00 0.01 0.01 0.00 0.00 0.00 0.00 0.00 0.00 0.01 0.01 0.01 0.01 0.01 0.01 0.01
0.07 0.06 0.06 0.06 0.06 0.06 0.07 0.08 0.07 0.07 0.06 0.05 0.03 0.02 0.02 0.01 0.01 0.01 0.01 0.01 0.01 0.01 0.01 0.01 0.01 0.00 0.00 0.00 0.00 0.00 0.00 0.00 0.00 0.00 0.00 0.00 0.01 0.01 0.01 0.01 0.01 0.01 0.01
0.07 0.06 0.05 0.05 0.05 0.05 0.05 0.05 0.06 0.05 0.04 0.03 0.02 0.02 0.02 0.02 0.02 0.01 0.01 0.01 0.01 0.01 0.01 0.01 0.01 0.01 0.00 0.01 0.01 0.01 0.01 0.01 0.00 0.00 0.00 0.01 0.01 0.01 0.01 0.01 0.01 0.01 0.01
0.06 0.05 0.05 0.04 0.03 0.03 0.02 0.03 0.03 0.03 0.03 0.03 0.03 0.02 0.02 0.03 0.03 0.03 0.02 0.01 0.01 0.01 0.02 0.02 0.02 0.01 0.01 0.01 0.01 0.01 0.01 0.01 0.00 0.00 0.00 0.00 0.00 0.00 0.01 0.01 0.01 0.01 0.01
0.04 0.04 0.04 0.04 0.03 0.02 0.02 0.02 0.02 0.03 0.03 0.04 0.04 0.04 0.03 0.04 0.05 0.05 0.05 0.03 0.03 0.03 0.03 0.03 0.03 0.02 0.01 0.01 0.01 0.01 0.01 0.01 0.00 0.00 0.00 0.00 0.00 0.00 0.00 0.01 0.01 0.01 0.01
0.03 0.03 0.02 0.02 0.02 0.02 0.02 0.01 0.01 0.02 0.03 0.03 0.04 0.05 0.06 0.06 0.07 0.07 0.07 0.06 0.06 0.05 0.05 0.04 0.04 0.02 0.01 0.01 0.01 0.01 0.02 0.02 0.01 0.01 0.01 0.01 0.01 0.01 0.01 0.01 0.01 0.01 0.01
0.03 0.03 0.03 0.03 0.03 0.02 0.03 0.02 0.02 0.01 0.01 0.02 0.03 0.04 0.05 0.06 0.07 0.07 0.07 0.06 0.06 0.06 0.05 0.04 0.04 0.03 0.02 0.02 0.03 0.03 0.03 0.03 0.03 0.03 0.02 0.03 0.02 0.02 0.02 0.01 0.01 0.01 0.01
0.03 0.02 0.02 0.02 0.02 0.02 0.03 0.02 0.02 0.02 0.01 0.02 0.02 0.04 0.04 0.05 0.05 0.06 0.06 0.05 0.05 0.05 0.05 0.04 0.04 0.03 0.03 0.03 0.04 0.05 0.05 0.05 0.04 0.04 0.03 0.03 0.02 0.02 0.01 0.01 0.01 0.01 0.01
0.02 0.02 0.02 0.02 0.02 0.02 0.02 0.02 0.01 0.01 0.01 0.02 0.02 0.03 0.04 0.04 0.05 0.05 0.05 0.05 0.05 0.05 0.05 0.05 0.04 0.04 0.04 0.04 0.04 0.05 0.05 0.05 0.05 0.04 0.03 0.02 0.02 0.01 0.01 0.01 0.00 0.01 0.01
0.02 0.02 0.02 0.02 0.02 0.02 0.02 0.02 0.02 0.01 0.01 0.02 0.02 0.03 0.04 0.04 0.05 0.06 0.05 0.05 0.05 0.05 0.04 0.04 0.04 0.04 0.03 0.04 0.04 0.03 0.03 0.04 0.04 0.03 0.02 0.02 0.02 0.02 0.01 0.01 0.00 0.00 0.00
MSLP
1020.45 1020.68 1020.87 1021.03 1021.17 1021.29 1021.41 1021.52 1021.62 1021.70 1021.75 1021.75 1021.72 1021.66 1021.59 1021.55 1021.54 1021.58 1021.67 1021.80 1021.93 1022.04 1022.11 1022.11 1022.04 1021.91 1021.76 1021.59 1021.43 1021.30 1021.21 1021.15 1021.11 1021.07 1021.03 1020.97 1020.91 1020.84 1020.76 1020.70 1020.65 1020.62 1020.61
1020.22 1020.41 1020.59 1020.74 1020.88 1021.02 1021.15 1021.27 1021.38 1021.47 1021.52 1021.52 1021.47 1021.40 1021.31 1021.23 1021.19 1021.19 1021.25 1021.35 1021.47 1021.58 1021.66 1021.69 1021.66 1021.58 1021.44 1021.29 1021.14 1020.99 1020.88 1020.78 1020.71 1020.65 1020.59 1020.53 1020.47 1020.40 1020.34 1020.28 1020.23 1020.20 1020.19
1020.00 1020.18 1020.34 1020.50 1020.65 1020.80 1020.95 1021.09 1021.21 1021.31 1021.36 1021.36 1021.30 1021.20 1021.08 1020.96 1020.86 1020.81 1020.81 1020.87 1020.96 1021.07 1021.16 1021.22 1021.23 1021.19 1021.11 1020.99 1020.85 1020.71 1020.57 1020.45 1020.35 1020.26 1020.18 1020.11 1020.04 1019.97 1019.90 1019.84 1019.79 1019.75 1019.73
1019.81 1019.98 1020.14 1020.31 1020.47 1020.64 1020.81 1020.97 1021.11 1021.21 1021.27 1021.26 1021.18 1021.06 1020.90 1020.73 1020.57 1020.46 1020.41 1020.41 1020.46 1020.55 1020.64 1020.73 1020.78 1020.79 1020.75 1020.67 1020.57 1020.44 1020.31 1020.17 1020.05 1019.93 1019.83 1019.73 1019.65 1019.57 1019.49 1019.42 1019.36 1019.30 1019.26
1019.62 1019.78 1019.95 1020.13 1020.32 1020.51 1020.70 1020.88 1021.03 1021.14 1021.19 1021.18 1021.09 1020.95 1020.76 1020.55 1020.34 1020.17 1020.06 1020.00 1020.01 1020.06 1020.15 1020.24 1020.32 1020.38 1020.39 1020.36 1020.29 1020.19 1020.07 1019.93 1019.79 1019.66 1019.53 1019.41 1019.30 1019.21 1019.12 1019.03 1018.95 1018.88 1018.80
1019.39 1019.54 1019.72 1019.92 1020.13 1020.34 1020.55 1020.74 1020.91 1021.02 1021.08 1021.06 1020.98 1020.83 1020.62 1020.39 1020.16 1019.94 1019.78 1019.67 1019.63 1019.65 1019.71 1019.80 1019.90 1019.98 1020.03 1020.05 1020.02 1019.96 1019.86 1019.73 1019.59 1019.43 1019.28 1019.14 1019.01 1018.89 1018.79 1018.69 1018.59 1018.50 1018.41
1019.05 1019.21 1019.41 1019.63 1019.86 1020.09 1020.32 1020.52 1020.69 1020.81 1020.87 1020.87 1020.79 1020.65 1020.46 1020.23 1019.99 1019.76 1019.57 1019.43 1019.34 1019.32 1019.35 1019.42 1019.52 1019.61 1019.70 1019.75 1019.76 1019.74 1019.67 1019.56 1019.41 1019.26 1019.09 1018.93 1018.77 1018.64 1018.51 1018.40 1018.30 1018.19 1018.08
1018.58 1018.75 1018.97 1019.21 1019.46 1019.71 1019.95 1020.16 1020.34 1020.47 1020.54 1020.56 1020.51 1020.40 1020.24 1020.04 1019.82 1019.60 1019.40 1019.24 1019.13 1019.07 1019.06 1019.11 1019.18 1019.28 1019.38 1019.47 1019.52 1019.53 1019.49 1019.41 1019.28 1019.13 1018.95 1018.77 1018.59 1018.43 1018.30 1018.18 1018.07 1017.96 1017.85
1017.97 1018.16 1018.39 1018.65 1018.92 1019.19 1019.45 1019.67 1019.85 1019.99 1020.08 1020.12 1020.11 1020.05 1019.94 1019.79 1019.62 1019.44 1019.25 1019.09 1018.96 1018.87 1018.83 1018.84 1018.89 1018.99 1019.10 1019.20 1019.29 1019.35 1019.35 1019.30 1019.19 1019.04 1018.86 1018.66 1018.47 1018.29 1018.13 1018.00 1017.89 1017.80 1017.70
1017.27 1017.47 1017.71 1017.99 1018.28 1018.56 1018.83 1019.06 1019.25 1019.40 1019.51 1019.57 1019.60 1019.60 1019.55 1019.47 1019.36 1019.23 1019.08 1018.93 1018.79 1018.68 1018.62 1018.60 1018.64 1018.72 1018.84 1018.96 1019.09 1019.18 1019.23 1019.22 1019.14 1019.00 1018.82 1018.60 1018.39 1018.19 1018.01 1017.87 1017.76 1017.67 1017.59
1016.54 1016.74 1016.99 1017.28 1017.58 1017.87 1018.14 1018.37 1018.56 1018.72 1018.85 1018.95 1019.02 1019.06 1019.08 1019.07 1019.02 1018.94 1018.83 1018.71 1018.58 1018.47 1018.39 1018.36 1018.39 1018.47 1018.59 1018.75 1018.91 1019.04 1019.14 1019.16 1019.11 1018.99 1018.81 1018.58 1018.35 1018.12 1017.92 1017.76 1017.64 1017.56 1017.50
1015.87 1016.06 1016.30 1016.58 1016.88 1017.16 1017.42 1017.65 1017.84 1018.00 1018.14 1018.26 1018.36 1018.45 1018.52 1018.57 1018.58 1018.56 1018.50 1018.41 1018.31 1018.21 1018.13 1018.11 1018.13 1018.22 1018.36 1018.54 1018.74 1018.91 1019.05 1019.12 1019.10 1018.99 1018.81 1018.58 1018.32 1018.06 1017.83 1017.65 1017.52 1017.43 1017.37
1015.31 1015.47 1015.69 1015.95 1016.22 1016.48 1016.72 1016.93 1017.11 1017.26 1017.39 1017.52 1017.65 1017.77 1017.88 1017.97 1018.04 1018.06 1018.05 1018.01 1017.94 1017.87 1017.82 1017.81 1017.86 1017.97 1018.13 1018.35 1018.57 1018.79 1018.96 1019.06 1019.07 1018.99 1018.81 1018.57 1018.29 1018.00 1017.74 1017.52 1017.37 1017.26 1017.20
1014.90 1015.02 1015.20 1015.40 1015.63 1015.84 1016.04 1016.22 1016.37 1016.50 1016.63 1016.75 1016.88 1017.02 1017.15 1017.28 1017.38 1017.46 1017.50 1017.51 1017.49 1017.47 1017.47 1017.49 1017.57 1017.72 1017.91 1018.15 1018.40 1018.65 1018.85 1018.97 1019.01 1018.94 1018.78 1018.53 1018.24 1017.94 1017.65 1017.40 1017.21 1017.08 1016.99
1014.66 1014.72 1014.82 1014.96 1015.12 1015.27 1015.41 1015.53 1015.64 1015.74 1015.84 1015.95 1016.07 1016.21 1016.36 1016.51 1016.65 1016.77 1016.86 1016.93 1016.98 1017.02 1017.08 1017.16 1017.29 1017.47 1017.69 1017.95 1018.22 1018.48 1018.69 1018.84 1018.89 1018.84 1018.69 1018.46 1018.18 1017.87 1017.57 1017.30 1017.08 1016.91 1016.80
1014.55 1014.54 1014.56 1014.62 1014.68 1014.76 1014.82 1014.88 1014.93 1014.98 1015.04 1015.13 1015.24 1015.37 1015.52 1015.69 1015.86 1016.02 1016.17 1016.31 1016.43 1016.55 1016.69 1016.84 1017.02 1017.24 1017.49 1017.76 1018.03 1018.28 1018.50 1018.64 1018.70 1018.68 1018.56 1018.36 1018.11 1017.82 1017.52 1017.25 1017.01 1016.82 1016.67
1014.54 1014.45 1014.39 1014.35 1014.33 1014.31 1014.29 1014.27 1014.25 1014.25 1014.27 1014.32 1014.41 1014.54 1014.69 1014.87 1015.07 1015.28 1015.49 1015.70 1015.90 1016.11 1016.33 1016.55 1016.79 1017.04 1017.31 1017.58 1017.83 1018.07 1018.26 1018.40 1018.47 1018.46 1018.38 1018.24 1018.03 1017.80 1017.54 1017.29 1017.06 1016.85 1016.67
1014.58 1014.43 1014.29 1014.17 1014.05 1013.94 1013.84 1013.74 1013.65 1013.59 1013.57 1013.58 1013.65 1013.76 1013.91 1014.10 1014.33 1014.58 1014.85 1015.14 1015.43 1015.73 1016.02 1016.32 1016.61 1016.89 1017.16 1017.42 1017.64 1017.85 1018.01 1018.13 1018.20 1018.23 1018.19 1018.11 1017.99 1017.83 1017.64 1017.44 1017.23 1017.03 1016.84
1014.65 1014.45 1014.26 1014.07 1013.88 1013.69 1013.50 1013.33 1013.18 1013.06 1012.99 1012.97 1013.00 1013.09 1013.24 1013.44 1013.69 1013.98 1014.31 1014.66 1015.03 1015.41 1015.78 1016.14 1016.47 1016.78 1017.05 1017.28 1017.47 1017.64 1017.77 1017.87 1017.94 1017.99 1018.02 1018.01 1017.98 1017.91 1017.81 1017.68 1017.53 1017.35 1017.16
1014.72 1014.51 1014.30 1014.07 1013.83 1013.58 1013.33 1013.09 1012.88 1012.70 1012.58 1012.52 1012.52 1012.59 1012.73 1012.93 1013.19 1013.51 1013.88 1014.28 1014.71 1015.15 1015.59 1016.00 1016.37 1016.69 1016.96 1017.17 1017.33 1017.46 1017.56 1017.64 1017.72 1017.80 1017.88 1017.95 1018.01 1018.04 1018.03 1017.99 1017.89 1017.76 1017.58
1014.80 1014.61 1014.40 1014.16 1013.90 1013.61 1013.32 1013.03 1012.77 1012.55 1012.38 1012.28 1012.24 1012.28 1012.39 1012.58 1012.84 1013.17 1013.55 1013.99 1014.46 1014.95 1015.43 1015.88 1016.28 1016.62 1016.89 1017.09 1017.23 1017.33 1017.41 1017.48 1017.57 1017.67 1017.80 1017.94 1018.08 1018.20 1018.28 1018.31 1018.27 1018.17 1018.01
1014.87 1014.73 1014.56 1014.34 1014.09 1013.79 1013.48 1013.16 1012.86 1012.60 1012.39 1012.24 1012.16 1012.16 1012.24 1012.40 1012.64 1012.96 1013.35 1013.79 1014.28 1014.78 1015.29 1015.77 1016.20 1016.55 1016.83 1017.03 1017.17 1017.27 1017.34 1017.41 1017.51 1017.64 1017.80 1017.99 1018.18 1018.36 1018.51 1018.59 1018.60 1018.53 1018.39
1014.92 1014.85 1014.74 1014.57 1014.35 1014.07 1013.76 1013.42 1013.10 1012.81 1012.56 1012.38 1012.26 1012.22 1012.26 1012.38 1012.59 1012.88 1013.24 1013.67 1014.14 1014.65 1015.17 1015.66 1016.11 1016.49 1016.79 1017.01 1017.17 1017.28 1017.37 1017.45 1017.56 1017.71 1017.89 1018.10 1018.32 1018.53 1018.70 1018.81 1018.84 1018.78 1018.65
1014.94 1014.94 1014.90 1014.79 1014.61 1014.37 1014.08 1013.75 1013.43 1013.12 1012.85 1012.64 1012.50 1012.42 1012.42 1012.50 1012.66 1012.91 1013.23 1013.62 1014.08 1014.57 1015.08 1015.58 1016.04 1016.44 1016.78 1017.04 1017.24 1017.38 1017.50 1017.61 1017.74 1017.90 1018.08 1018.29 1018.50 1018.70 1018.86 1018.95 1018.97 1018.91 1018.78
1014.88 1014.95 1014.97 1014.93 1014.81 1014.61 1014.36 1014.06 1013.76 1013.46 1013.19 1012.97 1012.81 1012.71 1012.68 1012.73 1012.85 1013.05 1013.32 1013.68 1014.09 1014.56 1015.05 1015.55 1016.02 1016.45 1016.83 1017.14 1017.38 1017.58 1017.74 1017.89 1018.03 1018.19 1018.37 1018.55 1018.73 1018.88 1019.00 1019.06 1019.05 1018.96 1018.81
1014.72 1014.84 1014.92 1014.94 1014.88 1014.74 1014.54 1014.29 1014.03 1013.76 1013.52 1013.32 1013.16 1013.06 1013.02 1013.04 1013.13 1013.30 1013.53 1013.84 1014.22 1014.65 1015.12 1015.61 1016.09 1016.54 1016.96 1017.31 1017.62 1017.87 1018.08 1018.26 1018.42 1018.58 1018.73 1018.88 1019.01 1019.11 1019.16 1019.16 1019.11 1018.99 1018.82
Thickness
5691 5690 5689 5687 5687 5686 5685 5684 5683 5682 5681 5679 5678 5677 5676 5674 5672 5671 5668 5665 5663 5662 5661 5660 5659 5658 5656 5655 5653 5651 5649 5648 5646 5643 5641 5640 5638 5636 5635 5633 5632 5631 5630
5685 5684 5684 5683 5682 5681 5680 5679 5678 5677 5675 5674 5673 5672 5670 5669 5667 5666 5664 5661 5659 5657 5656 5655 5654 5652 5651 5649 5648 5646 5644 5642 5640 5638 5636 5634 5633 5631 5629 5628 5626 5625 5624
5678 5678 5678 5677 5676 5675 5673 5673 5672 5671 5670 5668 5668 5666 5665 5664 5662 5661 5659 5657 5654 5652 5650 5649 5648 5647 5645 5644 5642 5640 5638 5636 5634 5632 5630 5628 5626 5625 5623 5621 5620 5618 5617
5672 5671 5671 5671 5669 5668 5667 5666 5666 5665 5664 5663 5662 5661 5659 5657 5657 5655 5653 5651 5649 5647 5645 5643 5641 5640 5639 5638 5636 5634 5632 5630 5628 5626 5624 5622 5620 5618 5616 5615 5613 5612 5610
5665 5665 5665 5664 5663 5662 5661 5660 5659 5659 5657 5656 5655 5654 5653 5652 5650 5649 5648 5645 5643 5641 5639 5637 5635 5633 5632 5631 5629 5628 5626 5624 5621 5619 5617 5615 5613 5611 5609 5608 5606 5604 5603
5658 5658 5657 5657 5656 5655 5654 5653 5652 5651 5650 5648 5647 5647 5646 5645 5643 5642 5641 5639 5637 5635 5633 5631 5629 5627 5625 5624 5622 5620 5619 5616 5614 5612 5610 5608 5606 5604 5602 5600 5598 5597 5595
5651 5651 5650 5650 5649 5648 5647 5647 5645 5643 5641 5640 5640 5639 5639 5638 5637 5636 5634 5633 5631 5628 5626 5624 5622 5621 5619 5617 5615 5613 5611 5609 5607 5604 5602 5600 5598 5596 5594 5592 5590 5589 5587
5643 5643 5643 5642 5641 5641 5640 5639 5637 5636 5634 5632 5632 5632 5633 5633 5631 5629 5628 5626 5624 5622 5619 5617 5615 5613 5612 5610 5607 5604 5602 5600 5598 5596 5594 5592 5590 5588 5586 5585 5583 5581 5579
5634 5634 5634 5634 5633 5633 5632 5631 5630 5629 5628 5626 5625 5625 5626 5628 5626 5624 5622 5619 5617 5615 5613 5610 5608 5605 5603 5601 5599 5596 5593 5591 5589 5587 5585 5583 5581 5580 5578 5577 5575 5573 5571
5624 5624 5625 5625 5624 5623 5623 5623 5622 5621 5620 5619 5617 5616 5617 5618 5617 5617 5615 5613 5610 5607 5605 5603 5600 5598 5595 5592 5589 5587 5584 5582 5580 5578 5577 5575 5573 5572 5570 5568 5566 5565 5563
5615 5614 5615 5615 5615 5614 5614 5613 5613 5612 5612 5612 5610 5608 5607 5606 5608 5608 5608 5605 5602 5599 5597 5595 5592 5590 5587 5584 5581 5578 5575 5573 5572 5570 5568 5567 5565 5563 5562 5560 5559 5557 5555
5605 5604 5604 5605 5605 5605 5604 5604 5603 5603 5602 5602 5601 5600 5599 5598 5598 5598 5598 5597 5595 5592 5588 5586 5584 5581 5578 5575 5572 5569 5567 5565 5563 5561 5560 5558 5556 5555 5554 5552 5551 5549 5548
5595 5595 5594 5595 5595 5595 5595 5594 5594 5593 5592 5592 5591 5591 5590 5590 5589 5588 5588 5587 5586 5584 5580 5578 5575 5572 5569 5566 5564 5560 5558 5556 5555 5553 5551 5550 5548 5547 5546 5544 5542 5540 5539
5586 5585 5584 5585 5584 5584 5584 5584 5583 5582 5582 5581 5580 5580 5579 5579 5578 5577 5576 5576 5575 5576 5573 5571 5567 5564 5560 5557 5554 5552 5550 5548 5546 5545 5543 5541 5540 5539 5537 5535 5534 5532 5530
5575 5574 5574 5574 5574 5574 5573 5573 5572 5572 5571 5570 5569 5568 5568 5568 5567 5566 5565 5564 5564 5565 5567 5564 5558 5555 5550 5547 5545 5543 5542 5540 5538 5536 5535 5533 5532 5530 5528 5526 5524 5522 5520
5564 5564 5564 5563 5562 5562 5562 5562 5561 5561 5560 5558 5557 5557 5557 5556 5556 5555 5554 5553 5552 5552 5554 5553 5548 5544 5540 5537 5535 5533 5533 5531 5530 5528 5526 5524 5523 5521 5519 5517 5514 5512 5510
5553 5553 5552 5552 5551 5551 5551 5550 5549 5549 5548 5547 5546 5545 5545 5545 5544 5543 5543 5542 5541 5540 5541 5541 5537 5533 5530 5528 5527 5525 5523 5522 5521 5519 5517 5515 5513 5511 5509 5506 5504 5501 5499
5541 5541 5540 5540 5539 5540 5539 5539 5538 5537 5536 5536 5535 5534 5534 5533 5533 5532 5531 5531 5530 5529 5529 5529 5526 5523 5521 5518 5517 5516 5514 5512 5511 5510 5507 5505 5503 5501 5499 5496 5493 5491 5488
5528 5528 5528 5528 5527 5527 5527 5528 5527 5526 5525 5524 5524 5523 5523 5522 5522 5521 5520 5520 5520 5518 5517 5516 5516 5513 5511 5508 5507 5506 5504 5502 5500 5499 5498 5496 5493 5490 5488 5485 5482 5480 5477
5515 5516 5516 5516 5515 5515 5515 5515 5515 5514 5513 5512 5512 5511 5511 5511 5511 5510 5509 5509 5508 5507 5506 5506 5505 5504 5501 5498 5496 5496 5496 5493 5491 5489 5487 5485 5482 5479 5476 5474 5471 5469 5467
5501 5502 5503 5502 5502 5502 5502 5502 5502 5502 5501 5501 5500 5499 5499 5498 5497 5497 5497 5497 5496 5496 5495 5494 5494 5493 5491 5488 5487 5484 5483 5483 5481 5478 5476 5474 5472 5470 5467 5463 5460 5458 5456
5488 5489 5489 5489 5489 5490 5489 5488 5489 5489 5489 5489 5488 5487 5486 5485 5484 5483 5483 5483 5483 5484 5484 5484 5484 5484 5482 5479 5475 5472 5470 5470 5471 5467 5463 5463 5460 5458 5455 5453 5449 5447 5445
5474 5475 5475 5475 5475 5475 5475 5474 5474 5475 5476 5476 5476 5475 5474 5474 5473 5472 5471 5470 5469 5469 5470 5472 5473 5473 5471 5468 5464 5461 5459 5456 5455 5452 5449 5451 5449 5447 5444 5441 5438 5436 5434
5461 5460 5460 5460 5461 5461 5460 5460 5461 5461 5461 5462 5462 5462 5461 5461 5460 5459 5460 5459 5458 5458 5458 5459 5460 5459 5457 5454 5451 5449 5446 5443 5441 5438 5435 5437 5437 5435 5432 5430 5427 5425 5423
5447 5446 5446 5446 5446 5446 5446 5446 5446 5446 5447 5447 5447 5446 5447 5447 5447 5446 5446 5447 5446 5446 5445 5444 5445 5444 5442 5441 5438 5435 5433 5431 5431 5429 5424 5422 5423 5421 5421 5420 5417 5414 5412
5433 5432 5432 5432 5432 5432 5432 5432 5431 5433 5433 5433 5433 5432 5432 5432 5432 5432 5433 5434 5434 5433 5432 5432 5431 5430 5428 5427 5425 5423 5421 5419 5417 5416 5413 5408 5407 5405 5408 5409 5406 5403 5401